Total_Precipitation_Accumulation
1.35 1.25 0.91 0.52 0.37 0.29 0.32 0.32 0.27 0.26 0.23 0.27 0.24 0.22 0.22 0.26 0.29 0.26 0.23 0.25 0.33 0.43 0.51 0.56 0.66 0.78 0.89 1.04 1.14 1.11 1.04 1.03 1.02 0.99 0.87 0.81 0.76 0.76 0.69 0.61 0.53 0.48 0.40 0.35
1.28 0.92 0.51 0.36 0.39 0.37 0.36 0.36 0.26 0.23 0.25 0.30 0.28 0.23 0.22 0.23 0.25 0.21 0.19 0.19 0.23 0.32 0.40 0.44 0.53 0.66 0.80 0.90 0.98 1.08 1.05 1.03 1.00 0.95 0.93 0.99 1.06 1.04 0.99 0.92 0.74 0.63 0.56 0.52
0.99 0.60 0.46 0.50 0.52 0.48 0.36 0.30 0.24 0.26 0.29 0.32 0.29 0.27 0.20 0.19 0.15 0.15 0.17 0.17 0.17 0.19 0.28 0.36 0.45 0.53 0.65 0.81 0.88 0.92 0.94 1.01 1.03 1.12 1.24 1.28 1.28 1.13 0.96 0.80 0.69 0.70 0.72 0.69
0.90 0.55 0.58 0.63 0.56 0.48 0.39 0.20 0.22 0.30 0.38 0.39 0.33 0.36 0.20 0.15 0.12 0.11 0.12 0.13 0.15 0.15 0.19 0.27 0.35 0.43 0.51 0.60 0.76 0.83 0.87 0.96 1.04 1.17 1.22 1.16 1.03 0.93 0.84 0.82 0.78 0.76 0.76 0.77
0.94 0.64 0.68 0.70 0.50 0.45 0.38 0.21 0.25 0.36 0.45 0.43 0.28 0.27 0.18 0.10 0.08 0.08 0.08 0.09 0.10 0.13 0.15 0.16 0.21 0.28 0.32 0.41 0.55 0.66 0.72 0.81 0.90 1.02 1.05 1.14 1.05 0.94 0.92 0.89 0.81 0.73 0.69 0.71
0.72 0.63 0.74 0.67 0.46 0.48 0.45 0.43 0.45 0.51 0.72 0.67 0.26 0.22 0.19 0.09 0.06 0.05 0.05 0.06 0.08 0.11 0.12 0.10 0.12 0.19 0.25 0.28 0.36 0.47 0.54 0.61 0.73 0.86 0.92 0.93 0.94 0.90 0.86 0.84 0.77 0.70 0.68 0.68
1.04 0.85 0.73 0.70 0.71 0.73 0.73 0.92 1.16 1.12 1.01 0.55 0.17 0.18 0.15 0.07 0.06 0.05 0.04 0.05 0.06 0.08 0.09 0.09 0.08 0.12 0.17 0.20 0.24 0.32 0.38 0.45 0.55 0.66 0.80 0.84 0.88 0.89 0.83 0.78 0.78 0.71 0.61 0.54
1.06 1.00 0.71 0.75 0.83 0.88 0.78 0.84 0.92 0.75 0.46 0.23 0.15 0.16 0.09 0.04 0.04 0.03 0.03 0.05 0.06 0.08 0.07 0.07 0.05 0.07 0.10 0.13 0.17 0.22 0.30 0.36 0.44 0.51 0.60 0.70 0.78 0.82 0.78 0.76 0.76 0.74 0.65 0.60
0.69 0.75 0.51 0.54 0.57 0.62 0.76 0.74 0.57 0.68 0.45 0.28 0.18 0.12 0.06 0.04 0.03 0.02 0.03 0.05 0.07 0.08 0.05 0.04 0.04 0.05 0.06 0.06 0.09 0.14 0.22 0.29 0.32 0.38 0.47 0.53 0.60 0.63 0.66 0.67 0.69 0.71 0.66 0.59
0.59 0.75 0.55 0.56 0.72 0.67 0.67 0.63 0.73 1.04 0.79 0.42 0.18 0.10 0.08 0.05 0.03 0.03 0.03 0.05 0.07 0.06 0.04 0.04 0.04 0.06 0.06 0.05 0.06 0.08 0.14 0.23 0.28 0.30 0.35 0.37 0.39 0.46 0.53 0.57 0.56 0.57 0.57 0.57
0.55 0.80 0.71 0.73 0.87 0.65 0.62 0.71 0.80 0.80 0.62 0.52 0.28 0.13 0.07 0.06 0.06 0.05 0.05 0.07 0.07 0.04 0.03 0.04 0.05 0.06 0.06 0.07 0.08 0.09 0.09 0.13 0.18 0.20 0.20 0.23 0.27 0.31 0.37 0.43 0.43 0.45 0.47 0.48
0.51 0.79 0.71 0.57 0.49 0.39 0.49 0.50 0.60 0.79 0.55 0.42 0.33 0.15 0.05 0.05 0.08 0.10 0.08 0.08 0.06 0.04 0.04 0.05 0.05 0.07 0.06 0.07 0.09 0.11 0.10 0.11 0.12 0.13 0.16 0.18 0.19 0.20 0.24 0.28 0.31 0.32 0.33 0.35
0.52 0.82 0.84 0.65 0.61 0.57 0.58 0.43 0.45 0.67 0.85 0.62 0.46 0.19 0.05 0.04 0.07 0.10 0.11 0.11 0.07 0.06 0.06 0.05 0.05 0.08 0.08 0.08 0.08 0.10 0.09 0.08 0.07 0.09 0.13 0.17 0.16 0.18 0.21 0.22 0.22 0.22 0.23 0.24
0.71 0.84 0.76 0.67 0.57 0.57 0.55 0.41 0.46 0.92 1.11 0.56 0.28 0.17 0.11 0.10 0.12 0.14 0.16 0.17 0.12 0.08 0.08 0.07 0.06 0.08 0.08 0.08 0.08 0.07 0.07 0.08 0.08 0.09 0.11 0.14 0.16 0.18 0.20 0.21 0.18 0.16 0.15 0.16
0.72 0.88 0.63 0.44 0.36 0.46 0.47 0.43 0.52 0.78 0.70 0.57 0.28 0.20 0.21 0.21 0.21 0.19 0.18 0.16 0.13 0.10 0.10 0.09 0.08 0.08 0.08 0.07 0.05 0.05 0.05 0.07 0.08 0.10 0.12 0.15 0.16 0.16 0.17 0.17 0.14 0.13 0.13 0.13
0.46 0.68 0.61 0.46 0.33 0.40 0.43 0.39 0.44 0.50 0.46 0.43 0.33 0.30 0.20 0.20 0.19 0.19 0.18 0.17 0.16 0.12 0.12 0.10 0.10 0.09 0.08 0.09 0.07 0.07 0.08 0.09 0.11 0.13 0.15 0.16 0.16 0.15 0.15 0.17 0.15 0.14 0.15 0.16
0.28 0.48 0.66 0.54 0.37 0.46 0.55 0.44 0.43 0.41 0.32 0.31 0.34 0.25 0.17 0.19 0.20 0.19 0.16 0.13 0.13 0.11 0.09 0.08 0.08 0.09 0.07 0.06 0.06 0.09 0.13 0.15 0.16 0.17 0.17 0.18 0.19 0.18 0.15 0.16 0.19 0.23 0.26 0.29
0.14 0.32 0.57 0.47 0.42 0.55 0.46 0.32 0.31 0.31 0.26 0.23 0.23 0.16 0.15 0.18 0.20 0.18 0.14 0.10 0.08 0.07 0.06 0.05 0.05 0.06 0.07 0.06 0.06 0.07 0.09 0.12 0.15 0.18 0.18 0.18 0.21 0.23 0.22 0.24 0.30 0.37 0.44 0.50
0.08 0.26 0.48 0.40 0.33 0.25 0.17 0.14 0.16 0.22 0.23 0.16 0.15 0.13 0.12 0.14 0.19 0.19 0.17 0.14 0.10 0.07 0.06 0.04 0.03 0.04 0.05 0.05 0.06 0.07 0.08 0.11 0.14 0.18 0.20 0.19 0.23 0.32 0.40 0.47 0.53 0.57 0.63 0.67
0.08 0.19 0.43 0.35 0.30 0.18 0.10 0.04 0.04 0.11 0.19 0.08 0.08 0.11 0.12 0.13 0.16 0.15 0.13 0.12 0.11 0.09 0.08 0.08 0.06 0.06 0.06 0.06 0.07 0.10 0.12 0.16 0.22 0.28 0.33 0.37 0.41 0.52 0.62 0.65 0.66 0.63 0.62 0.61
0.16 0.25 0.32 0.27 0.25 0.10 0.03 0.02 0.03 0.14 0.19 0.04 0.03 0.07 0.11 0.12 0.13 0.10 0.08 0.08 0.09 0.10 0.11 0.13 0.15 0.16 0.16 0.17 0.19 0.24 0.28 0.35 0.39 0.42 0.48 0.54 0.54 0.55 0.56 0.54 0.50 0.44 0.38 0.34
0.09 0.15 0.14 0.15 0.19 0.12 0.04 0.03 0.06 0.10 0.06 0.03 0.03 0.04 0.07 0.09 0.10 0.10 0.08 0.07 0.07 0.08 0.10 0.13 0.20 0.28 0.31 0.33 0.40 0.45 0.47 0.48 0.47 0.47 0.50 0.51 0.50 0.47 0.43 0.37 0.30 0.23 0.19 0.15
0.06 0.08 0.10 0.10 0.13 0.08 0.05 0.04 0.05 0.04 0.04 0.03 0.03 0.04 0.05 0.08 0.09 0.08 0.08 0.06 0.04 0.04 0.06 0.10 0.14 0.19 0.25 0.29 0.33 0.38 0.39 0.37 0.36 0.36 0.36 0.34 0.31 0.27 0.25 0.20 0.17 0.14 0.11 0.10
0.07 0.05 0.06 0.07 0.06 0.05 0.04 0.04 0.04 0.04 0.04 0.04 0.04 0.05 0.05 0.05 0.05 0.05 0.05 0.05 0.05 0.04 0.04 0.04 0.06 0.07 0.08 0.10 0.15 0.18 0.16 0.15 0.16 0.17 0.19 0.17 0.15 0.12 0.11 0.11 0.11 0.10 0.09 0.08
0.08 0.07 0.06 0.05 0.04 0.04 0.04 0.03 0.03 0.02 0.02 0.03 0.04 0.05 0.06 0.06 0.06 0.06 0.05 0.04 0.05 0.05 0.05 0.05 0.06 0.06 0.07 0.07 0.08 0.09 0.09 0.08 0.08 0.09 0.10 0.10 0.09 0.09 0.09 0.09 0.10 0.11 0.10 0.11
0.02 0.04 0.06 0.06 0.03 0.03 0.03 0.02 0.01 0.01 0.01 0.01 0.02 0.04 0.04 0.04 0.05 0.06 0.05 0.04 0.04 0.04 0.05 0.06 0.07 0.07 0.08 0.08 0.07 0.07 0.08 0.08 0.09 0.10 0.10 0.10 0.10 0.10 0.10 0.11 0.11 0.12 0.13 0.16